Change the Weather History Date:

Friday, May 30, 2014

  Actual Average Record
Temperature  
Mean Temperature 73 °F 71 °F  
Max Temperature 80 °F 81 °F 97 °F (1914)
Min Temperature 66 °F 61 °F 45 °F (1984)
Degree Days  
Heating Degree Days 0 1  
Month to date heating degree days 31 66  
Since 1 July heating degree days 3818 3612  
Cooling Degree Days 8 6  
Month to date cooling degree days 169 114  
Year to date cooling degree days 189 152  
Growing Degree Days 23 (Base 50)    
Moisture  
Dew Point 65 °F    
Average Humidity 78    
Maximum Humidity 93    
Minimum Humidity 62    
Precipitation  
Precipitation 0.11 in 0.13 in 1.10 in (1903)
Month to date precipitation 2.50 3.26  
Year to date precipitation 17.38 16.58  
Sea Level Pressure  
Sea Level Pressure 30.08 in    
Wind  
Wind Speed 6 mph (East)    
Max Wind Speed 15 mph    
Max Gust Speed 21 mph    
Visibility 7 miles    
Events Fog , Rain    
T = Trace of Precipitation, MM = Missing Value Source: NWS Daily Summary

Daily Weather History Graph

Daily Weather History Graph

Search for Another Location

Airport or City:

Trip Planner

Search our weather history database for the weather conditions in past years. The results will help you decide how hot, cold, wet, or windy it might be!

Date:

Astronomy

May. 30, 2014 Rise Set
Actual Time 6:04 AM EDT 8:30 PM EDT
Civil Twilight 5:35 AM EDT 8:59 PM EDT
Nautical Twilight 4:58 AM EDT 9:36 PM EDT
Astronomical Twilight 4:18 AM EDT 10:16 PM EDT
Moon 7:45 AM EDT (5/30) 10:07 PM EDT (5/30)
Length of Visible Light 15h 24m
Length of Day
14h 25m
Waxing Crescent, 4% of the Moon is Illuminated
May 30
Waxing Crescent
Jun 5
First Quarter
Jun 13
Full
Jun 19
Last Quarter
Jun 27
New

Hourly Weather History & Observations

Time (EDT) Temp. Heat Index Dew Point Humidity Pressure Visibility Wind Dir Wind Speed Gust Speed Precip Events Conditions
12:05 AM 68.0 °F - 64.4 °F 88% 30.12 in 10.0 mi SSW 3.5 mph - N/A   Overcast
12:47 AM 66.2 °F - 64.4 °F 94% 30.12 in 1.8 mi Calm Calm - 0.01 in Rain Heavy Rain
12:50 AM 66.2 °F - 64.4 °F 94% 30.12 in 0.8 mi Calm Calm - 0.05 in Rain Heavy Rain
12:54 AM 66.0 °F - 64.9 °F 96% 30.09 in 0.5 mi South 3.5 mph - 0.20 in Fog , Rain Heavy Rain
1:00 AM 66.2 °F - 64.4 °F 94% 30.11 in 1.0 mi South 4.6 mph - 0.10 in Rain Heavy Rain
1:03 AM 66.2 °F - 64.4 °F 94% 30.11 in 2.0 mi South 3.5 mph - 0.12 in Rain Rain
1:11 AM 66.2 °F - 64.4 °F 94% 30.11 in 6.0 mi Calm Calm - 0.12 in Rain Light Rain
1:54 AM 66.9 °F - 64.9 °F 93% 30.07 in 7.0 mi SE 3.5 mph - 0.12 in   Overcast
2:54 AM 66.9 °F - 64.9 °F 93% 30.06 in 7.0 mi Calm Calm - N/A   Overcast
3:32 AM 66.2 °F - 64.4 °F 94% 30.07 in 6.0 mi Calm Calm - N/A   Overcast
3:54 AM 66.9 °F - 64.9 °F 93% 30.04 in 6.0 mi Calm Calm - N/A   Overcast
4:54 AM 66.2 °F - 64.4 °F 94% 30.06 in 5.0 mi Calm Calm - N/A   Overcast
5:54 AM 66.9 °F - 64.9 °F 93% 30.04 in 5.0 mi Calm Calm - N/A   Overcast
6:09 AM 66.2 °F - 64.4 °F 94% 30.07 in 5.0 mi Calm Calm - N/A   Overcast
6:14 AM 66.2 °F - 64.4 °F 94% 30.07 in 5.0 mi NNE 3.5 mph - N/A   Overcast
6:54 AM 68.0 °F - 64.9 °F 90% 30.05 in 6.0 mi Calm Calm - N/A   Mostly Cloudy
7:54 AM 68.0 °F - 64.9 °F 90% 30.04 in 5.0 mi NE 3.5 mph - N/A   Overcast
8:10 AM 68.0 °F - 64.4 °F 88% 30.07 in 5.0 mi Calm Calm - N/A   Overcast
8:54 AM 70.0 °F - 66.0 °F 87% 30.05 in 6.0 mi ENE 3.5 mph - N/A   Mostly Cloudy
9:54 AM 73.0 °F - 66.0 °F 79% 30.06 in 9.0 mi NE 5.8 mph - N/A   Overcast
10:13 AM 73.4 °F - 66.2 °F 78% 30.09 in 9.0 mi East 3.5 mph - N/A   Overcast
10:44 AM 73.4 °F - 66.2 °F 78% 30.09 in 10.0 mi NE 5.8 mph - N/A   Overcast
10:54 AM 75.0 °F - 66.9 °F 76% 30.07 in 10.0 mi Variable 5.8 mph - N/A   Overcast
11:54 AM 75.0 °F - 66.0 °F 73% 30.08 in 10.0 mi Calm Calm - N/A   Mostly Cloudy
12:54 PM 77.0 °F - 66.0 °F 69% 30.07 in 10.0 mi SE 5.8 mph - N/A   Overcast
1:54 PM 78.8 °F - 66.2 °F 65% 30.10 in 10.0 mi ENE 10.4 mph - N/A   Overcast
2:39 PM 80.6 °F 82.7 °F 66.2 °F 61% 30.08 in 10.0 mi East 11.5 mph - N/A   Mostly Cloudy
2:54 PM 79.0 °F - 64.9 °F 62% 30.05 in 10.0 mi ENE 9.2 mph - N/A   Mostly Cloudy
3:54 PM 78.1 °F - 64.0 °F 62% 30.04 in 10.0 mi East 10.4 mph - N/A   Mostly Cloudy
4:54 PM 77.0 °F - 64.4 °F 65% 30.06 in 10.0 mi East 9.2 mph - N/A   Overcast
5:54 PM 77.0 °F - 64.4 °F 65% 30.06 in 8.0 mi East 12.7 mph - N/A   Overcast
6:54 PM 75.0 °F - 64.9 °F 71% 30.04 in 7.0 mi East 11.5 mph - N/A   Overcast
7:54 PM 72.0 °F - 64.0 °F 76% 30.05 in 6.0 mi East 10.4 mph - N/A   Haze
8:49 PM 71.6 °F - 64.4 °F 78% 30.09 in 10.0 mi East 10.4 mph - N/A   Overcast
8:54 PM 71.1 °F - 64.0 °F 78% 30.07 in 10.0 mi ENE 9.2 mph - N/A   Overcast
9:43 PM 69.8 °F - 64.4 °F 83% 30.10 in 10.0 mi East 11.5 mph - N/A   Overcast
9:54 PM 70.0 °F - 64.0 °F 81% 30.08 in 10.0 mi ENE 11.5 mph - N/A   Overcast
10:54 PM 68.0 °F - 64.9 °F 90% 30.11 in 6.0 mi ENE 6.9 mph - 0.00 in Rain Light Rain
11:15 PM 66.2 °F - 64.4 °F 94% 30.14 in 2.5 mi East 5.8 mph - 0.05 in Rain Rain
11:26 PM 66.2 °F - 64.4 °F 94% 30.14 in 5.0 mi East 6.9 mph - 0.06 in Rain Light Rain
11:54 PM 66.9 °F - 64.9 °F 93% 30.13 in 7.0 mi Calm Calm - 0.06 in   Overcast